Wind_Speed
36 38 40 40 41 45 48 49 51 49 51 56 57 56 49 51 54 54 53 51 53 53 58 62 61 57 51 53 56 54 53 50 49 49 47 46 42 40 39 37 38 38 41 44
36 38 40 44 45 47 48 50 50 52 54 55 55 57 54 53 53 53 56 58 54 52 51 55 64 64 64 60 61 61 57 51 54 54 50 46 43 40 39 37 38 38 40 41
35 36 39 41 44 49 51 51 53 56 56 58 62 63 56 52 56 56 56 55 54 56 54 52 54 58 61 64 65 63 63 56 54 54 50 44 44 39 41 38 38 37 39 38
34 36 39 43 44 46 50 52 55 58 59 62 57 67 64 58 59 60 58 59 58 55 55 51 51 53 60 58 58 62 63 60 46 47 50 47 45 39 42 39 37 36 39 37
31 34 38 40 41 40 45 43 43 47 53 60 63 66 65 65 64 63 62 62 60 55 56 55 47 49 56 61 59 49 55 60 41 44 50 51 48 43 42 44 37 38 40 34
29 28 32 36 37 37 40 37 39 41 43 55 54 45 67 68 69 69 64 64 63 58 55 57 54 45 50 54 54 51 52 53 38 37 45 47 49 46 45 44 36 38 39 31
24 28 33 40 38 29 27 28 27 28 29 36 31 31 49 64 69 73 71 68 63 62 55 58 59 54 49 48 49 49 48 50 40 37 42 52 48 43 41 40 34 39 33 30
23 25 28 32 31 29 17 21 22 29 27 32 34 39 41 34 39 49 58 61 59 51 47 52 64 60 53 51 50 48 48 44 43 39 35 42 46 41 41 33 36 35 29 29
23 26 31 26 29 28 25 29 25 32 33 40 36 32 24 33 37 38 41 51 53 46 44 40 44 50 63 53 49 48 44 42 41 37 31 33 39 39 38 31 36 27 29 27
27 26 26 27 21 20 21 20 26 26 34 36 33 23 30 31 29 27 32 45 55 52 50 43 43 46 47 50 46 41 40 38 39 37 31 31 37 37 33 33 27 27 27 25
25 26 24 25 19 23 15 20 24 27 25 33 29 29 29 30 27 25 32 51 54 48 48 45 49 47 50 42 41 35 40 38 36 35 33 33 34 34 29 29 25 26 23 23
21 22 21 19 19 23 23 16 25 32 30 25 29 33 25 30 38 29 35 50 51 43 46 40 53 52 52 40 35 36 36 36 35 33 32 32 33 27 29 26 25 22 22 20
21 22 20 16 16 19 23 24 20 28 33 26 33 29 23 34 38 31 30 51 53 36 43 40 46 54 42 37 33 35 37 36 31 29 26 27 29 28 25 23 22 21 20 18
17 19 19 22 18 17 19 24 20 19 23 27 31 33 32 35 32 26 21 49 44 34 35 41 42 44 42 35 35 36 38 33 31 30 26 28 27 25 21 23 21 18 18 18
19 17 19 24 26 25 21 16 16 26 23 24 23 26 34 33 30 35 8 47 33 47 45 35 40 33 35 37 35 38 37 33 31 29 26 24 24 22 22 20 16 16 18 16
19 17 19 20 25 26 19 13 15 20 21 34 32 33 27 32 25 17 11 32 38 31 37 34 34 38 38 37 38 36 34 34 31 29 25 23 22 21 19 16 15 16 15 15
19 19 21 19 23 23 13 18 17 14 14 24 28 35 32 30 30 23 16 10 31 42 42 36 40 40 47 34 32 28 34 32 29 27 23 23 21 18 16 15 15 14 15 13
15 21 21 19 24 21 19 24 19 16 19 18 17 21 20 24 32 28 20 6 11 29 28 35 45 44 37 31 29 20 31 28 27 25 24 20 18 17 17 15 14 14 12 13
15 16 23 15 19 21 21 18 21 24 20 25 27 26 19 17 20 21 28 22 8 37 39 40 40 43 45 35 33 31 34 30 28 24 21 19 17 16 15 14 12 11 11 12
14 15 13 18 21 18 21 18 17 17 21 30 28 25 20 13 14 18 27 19 20 32 44 43 44 40 39 35 29 35 32 29 25 24 21 17 17 15 14 12 10 10 11 10
16 14 15 17 20 18 21 17 24 26 34 40 34 28 24 15 14 19 21 26 27 20 46 45 43 38 39 38 24 32 27 26 24 22 18 18 16 14 12 9 8 10 10 9
16 18 16 20 22 23 23 23 29 32 33 37 35 31 26 24 16 15 22 30 36 31 51 43 41 38 39 34 22 26 27 24 23 19 19 17 14 11 8 8 8 8 8 7
15 18 18 20 21 26 27 32 31 34 39 25 20 31 33 28 24 21 26 31 37 44 54 43 41 38 37 31 26 26 26 24 21 20 17 14 12 8 7 6 6 6 6 7
15 18 20 24 23 27 30 28 36 43 49 32 24 24 28 26 24 30 34 42 37 46 56 45 45 42 39 41 36 33 25 23 20 18 15 13 9 7 6 4 5 5 6 9
22 21 21 16 25 25 32 30 39 45 49 33 27 21 19 25 26 36 47 45 34 45 49 46 46 42 35 44 36 31 27 22 20 17 14 11 8 7 4 3 4 4 9 12
18 17 20 26 24 29 32 36 40 45 27 26 23 16 18 24 25 49 53 43 45 48 45 51 45 44 41 36 35 30 26 23 20 16 13 11 8 5 3 2 2 6 10 14
Wind_Direction
263 262 260 256 259 260 258 257 258 256 254 252 252 253 249 249 244 244 242 244 242 240 237 242 241 242 249 253 253 246 249 258 263 264 265 267 276 281 288 298 304 314 320 322
261 262 262 262 262 263 266 266 263 263 263 261 261 259 254 250 252 252 251 247 245 244 240 238 241 243 246 248 250 253 251 247 252 259 263 269 275 281 288 298 303 312 315 316
269 268 268 269 268 267 267 268 266 265 264 264 264 261 259 256 253 252 252 254 253 247 243 240 240 243 244 246 253 258 260 257 254 256 263 270 275 283 287 294 300 306 309 310
273 270 266 265 264 264 266 261 260 260 260 263 261 262 259 254 254 253 250 249 250 252 252 243 241 239 243 249 253 253 258 261 259 260 267 269 274 278 284 290 295 302 307 304
274 273 269 267 266 269 271 271 269 266 264 263 261 264 259 257 254 252 251 250 249 247 251 253 246 240 241 244 251 255 258 264 262 258 258 266 271 274 279 283 296 301 304 291
289 295 291 289 294 294 286 276 271 264 262 264 266 273 257 256 255 251 247 247 248 245 242 249 248 242 243 245 250 252 256 261 260 253 258 260 264 269 276 279 291 298 293 282
306 310 306 302 300 295 281 277 281 277 270 273 279 280 271 257 252 250 246 243 240 238 231 234 248 244 244 246 249 247 250 257 261 262 263 260 261 266 271 278 286 290 280 272
325 329 314 305 295 287 243 260 251 283 278 286 286 289 288 277 264 254 247 238 233 225 228 228 240 241 237 240 245 246 247 255 261 258 266 252 249 257 268 275 281 279 268 271
327 336 335 308 282 279 271 251 266 267 279 282 292 300 272 271 255 253 242 226 219 208 214 227 231 236 241 239 240 247 247 250 255 254 253 251 245 249 259 269 273 263 264 274
323 331 332 310 290 285 275 261 253 261 275 276 283 296 283 278 251 254 241 208 195 205 209 211 214 229 240 242 249 255 247 248 251 251 244 250 245 237 251 265 261 256 266 273
321 317 325 318 296 287 253 263 251 265 280 266 288 294 279 281 259 250 226 206 197 203 204 203 219 218 243 242 242 248 240 242 246 249 250 254 238 233 250 255 251 256 268 275
316 325 344 331 285 281 280 289 253 262 275 285 291 289 292 295 295 276 219 210 191 191 197 201 214 221 235 239 235 243 239 241 247 248 247 233 223 236 241 244 250 258 263 271
315 317 339 3 311 290 273 289 275 258 271 271 280 296 301 305 300 278 211 204 189 190 199 198 214 225 232 237 231 236 235 240 244 236 222 216 224 228 233 241 250 256 263 271
322 327 340 342 334 310 279 273 263 269 273 282 270 282 282 290 298 264 195 198 199 191 193 205 213 228 228 227 228 231 230 235 224 220 212 209 216 222 225 236 245 255 267 269
318 322 333 341 338 326 326 307 268 257 263 268 269 282 280 289 296 271 169 193 179 202 195 191 209 207 205 213 222 225 227 217 211 209 203 206 210 216 226 233 246 259 261 267
322 326 338 335 331 326 320 316 311 289 254 242 257 257 267 287 292 261 73 158 168 165 166 186 191 200 203 211 216 213 206 204 200 201 195 197 206 216 221 229 243 251 257 268
321 315 302 331 340 329 328 313 308 319 298 282 273 276 270 269 281 290 247 140 156 171 186 185 185 202 202 186 207 212 188 197 191 190 191 198 204 207 216 228 241 243 260 268
294 312 317 310 331 333 322 316 288 307 305 299 308 303 296 273 273 282 272 192 151 189 174 173 179 188 202 191 184 201 175 184 186 187 190 195 199 206 217 232 237 252 261 273
325 309 300 298 328 329 330 313 295 296 301 309 301 310 306 274 262 259 275 252 204 185 184 174 185 186 196 188 175 188 179 181 184 182 186 192 196 206 219 225 242 255 267 279
303 307 299 305 324 329 331 329 309 316 323 317 294 290 298 286 276 270 269 241 224 194 181 179 182 190 198 202 171 164 170 176 176 182 188 185 191 202 213 228 245 258 276 278
298 297 300 303 315 320 325 321 321 313 321 324 299 281 269 259 242 239 253 225 232 204 187 179 180 185 190 193 178 151 164 170 177 182 180 180 190 198 212 237 249 270 276 284
289 292 300 309 308 311 313 313 314 316 321 314 286 279 273 264 244 246 225 213 198 198 192 180 178 185 182 183 166 156 165 171 175 174 174 181 188 196 222 238 266 278 294 289
280 287 302 302 306 306 311 306 308 314 316 310 279 267 266 251 240 240 215 208 198 199 198 184 180 181 176 174 170 166 167 170 170 169 173 175 185 199 216 246 267 291 287 283
287 280 287 292 299 297 308 285 311 317 317 309 287 264 257 245 226 223 202 199 199 205 205 191 181 180 183 177 170 165 167 169 165 166 171 177 186 201 213 247 274 279 275 285
282 285 287 301 310 300 305 314 314 312 309 295 284 281 250 230 215 202 197 197 200 203 196 186 180 178 193 156 163 164 166 163 165 172 174 176 189 203 215 246 265 281 292 293
290 296 297 304 310 311 319 314 309 309 309 291 290 266 224 208 207 179 192 195 199 201 196 180 179 182 178 168 164 166 157 163 170 176 171 180 190 197 203 233 280 308 307 303
Height
5717 5718 5718 5719 5720 5718 5718 5723 5724 5730 5727 5724 5728 5734 5749 5749 5751 5754 5756 5762 5764 5771 5782 5785 5790 5794 5799 5800 5803 5811 5815 5817 5818 5822 5827 5830 5832 5833 5834 5832 5831 5828 5824 5823
5709 5708 5708 5708 5708 5707 5707 5709 5714 5714 5711 5712 5715 5718 5731 5738 5741 5744 5746 5749 5754 5761 5767 5774 5779 5783 5787 5791 5793 5795 5803 5811 5811 5812 5818 5821 5823 5826 5825 5826 5825 5821 5819 5817
5699 5700 5699 5699 5698 5695 5696 5697 5698 5696 5694 5700 5696 5699 5716 5726 5727 5730 5735 5738 5743 5746 5752 5759 5765 5770 5774 5777 5781 5785 5789 5800 5803 5805 5808 5812 5815 5818 5816 5818 5817 5816 5815 5810
5689 5688 5688 5688 5686 5683 5685 5679 5681 5680 5680 5682 5682 5683 5694 5708 5709 5711 5718 5722 5728 5734 5738 5746 5751 5756 5760 5764 5770 5774 5777 5783 5797 5800 5799 5803 5806 5810 5809 5809 5810 5810 5807 5803
5679 5677 5676 5675 5673 5672 5673 5667 5668 5667 5666 5665 5673 5663 5686 5686 5692 5696 5702 5705 5711 5721 5725 5730 5739 5745 5748 5752 5756 5763 5766 5769 5786 5790 5792 5794 5797 5801 5802 5799 5801 5801 5799 5796
5667 5666 5664 5661 5659 5657 5655 5653 5653 5652 5651 5648 5658 5654 5658 5671 5673 5677 5686 5689 5696 5705 5712 5716 5724 5733 5737 5742 5748 5753 5756 5760 5772 5778 5781 5785 5788 5792 5794 5792 5795 5793 5791 5790
5662 5661 5656 5651 5649 5648 5646 5644 5642 5643 5642 5638 5643 5642 5639 5655 5649 5654 5665 5674 5681 5689 5696 5700 5708 5718 5725 5731 5736 5742 5747 5750 5760 5765 5769 5773 5778 5782 5784 5785 5786 5786 5784 5783
5654 5654 5650 5644 5640 5637 5641 5639 5638 5634 5632 5634 5636 5633 5633 5633 5634 5636 5641 5656 5662 5673 5682 5684 5694 5701 5712 5720 5725 5732 5737 5743 5748 5756 5760 5762 5766 5772 5773 5778 5778 5778 5778 5775
5649 5646 5641 5637 5633 5632 5633 5632 5635 5627 5629 5624 5626 5626 5626 5619 5612 5614 5620 5629 5646 5658 5664 5674 5683 5690 5700 5708 5717 5722 5729 5736 5740 5746 5748 5750 5754 5761 5764 5770 5769 5770 5770 5769
5643 5639 5636 5631 5627 5627 5623 5624 5624 5624 5619 5616 5618 5616 5612 5609 5608 5608 5611 5619 5634 5642 5647 5662 5670 5678 5689 5702 5710 5716 5723 5727 5729 5734 5739 5742 5744 5749 5757 5759 5762 5764 5763 5762
5638 5635 5634 5625 5622 5618 5620 5616 5617 5615 5616 5611 5611 5609 5606 5602 5598 5599 5602 5608 5618 5629 5638 5651 5661 5667 5680 5690 5700 5706 5711 5716 5720 5724 5726 5731 5735 5741 5748 5749 5754 5756 5755 5755
5634 5631 5627 5622 5616 5614 5612 5611 5612 5611 5610 5608 5605 5602 5602 5598 5593 5589 5594 5597 5605 5615 5628 5638 5647 5656 5669 5681 5691 5697 5703 5708 5712 5715 5718 5722 5729 5736 5738 5742 5747 5748 5749 5749
5630 5627 5622 5619 5614 5612 5610 5609 5607 5607 5604 5603 5602 5600 5602 5594 5588 5583 5585 5591 5604 5613 5617 5625 5638 5649 5662 5674 5682 5689 5695 5700 5704 5707 5710 5717 5725 5728 5732 5737 5740 5742 5743 5742
5626 5623 5619 5614 5611 5607 5605 5605 5603 5600 5597 5596 5598 5593 5592 5588 5587 5581 5583 5589 5598 5595 5610 5620 5625 5642 5656 5666 5675 5681 5686 5691 5696 5701 5706 5712 5717 5721 5728 5731 5733 5735 5736 5737
5621 5619 5616 5610 5605 5602 5599 5597 5597 5597 5594 5591 5590 5589 5585 5585 5586 5581 5583 5590 5589 5593 5608 5615 5620 5636 5649 5661 5668 5672 5678 5683 5690 5697 5700 5706 5712 5717 5723 5725 5727 5729 5731 5732
5617 5615 5612 5608 5605 5599 5594 5592 5590 5588 5586 5582 5582 5582 5584 5581 5583 5586 5583 5581 5585 5588 5593 5604 5617 5631 5647 5650 5655 5660 5670 5677 5685 5691 5697 5702 5708 5713 5717 5720 5723 5725 5727 5727
5611 5609 5607 5606 5601 5596 5594 5589 5587 5586 5582 5578 5577 5577 5579 5580 5579 5582 5583 5588 5588 5592 5595 5602 5616 5627 5625 5629 5636 5647 5661 5672 5682 5688 5694 5699 5704 5709 5713 5716 5719 5722 5722 5722
5608 5605 5601 5601 5598 5594 5591 5586 5583 5583 5578 5575 5574 5572 5570 5570 5574 5579 5580 5580 5582 5590 5599 5606 5613 5614 5621 5628 5639 5647 5659 5669 5677 5683 5690 5695 5700 5705 5709 5712 5714 5717 5717 5717
5598 5600 5597 5596 5594 5591 5589 5581 5580 5578 5576 5571 5568 5567 5565 5563 5568 5574 5575 5580 5583 5587 5600 5608 5614 5615 5619 5626 5636 5648 5656 5666 5674 5680 5686 5692 5698 5702 5706 5708 5711 5711 5712 5712
5599 5597 5595 5591 5589 5586 5584 5579 5575 5573 5570 5566 5564 5562 5562 5564 5566 5568 5571 5577 5581 5587 5596 5603 5607 5615 5621 5625 5620 5637 5651 5664 5672 5678 5684 5690 5695 5699 5701 5704 5705 5707 5707 5707
5592 5591 5589 5586 5583 5583 5578 5576 5572 5570 5568 5558 5552 5554 5557 5561 5565 5566 5569 5577 5578 5584 5593 5597 5604 5615 5623 5626 5606 5637 5652 5663 5670 5676 5682 5688 5692 5695 5698 5700 5701 5702 5702 5702
5588 5585 5584 5581 5578 5577 5572 5570 5568 5565 5564 5556 5546 5543 5546 5551 5556 5559 5567 5575 5578 5585 5592 5598 5607 5615 5626 5630 5618 5643 5654 5662 5668 5674 5680 5685 5689 5692 5695 5697 5697 5698 5697 5698
5584 5582 5579 5577 5575 5570 5566 5561 5558 5554 5553 5549 5544 5536 5537 5543 5548 5553 5561 5569 5578 5586 5594 5600 5609 5616 5624 5628 5638 5644 5653 5661 5667 5673 5679 5683 5687 5690 5692 5693 5694 5693 5694 5695
5579 5577 5574 5571 5569 5564 5560 5555 5550 5543 5538 5537 5535 5532 5527 5531 5537 5546 5557 5565 5576 5584 5592 5602 5607 5609 5620 5625 5636 5646 5655 5661 5667 5672 5677 5681 5685 5688 5689 5690 5691 5691 5692 5693
5572 5571 5568 5565 5561 5560 5553 5550 5545 5536 5531 5524 5523 5521 5520 5524 5531 5541 5552 5561 5574 5581 5590 5599 5605 5614 5620 5623 5630 5643 5654 5662 5666 5672 5676 5681 5684 5685 5687 5688 5689 5689 5690 5689
5567 5565 5562 5560 5554 5552 5548 5543 5536 5527 5520 5515 5513 5512 5512 5518 5523 5534 5551 5563 5571 5581 5589 5598 5608 5616 5619 5628 5634 5644 5654 5661 5666 5671 5676 5680 5683 5684 5685 5687 5687 5687 5686 5684